Tracking 19199 objects as of 25-Jun-2018
HD Live streaming from Space Station
objects crossing your sky now

FENGYUN 1C DEB

Track FENGYUN 1C DEB now!
10-day predictions


NORAD ID: 30921
Int'l Code: 1999-025AZK
Perigee: 831.3 km
Apogee: 861.0 km
Inclination: 99.0 °
Period: 101.7 minutes
Semi major axis: 7217 km
RCS: 0.037 m2 (small)
Launch date: May 10, 1999
Source: People's Republic of China (PRC)
Launch site: Taiyaun Space Center, China (TSC)

Note: This is SATELLITE DEBRIS
aabbcc
Your satellite tracking list
Your tracking list is empty




NASA's NSSDC Master Catalog

Two Line Element Set (TLE):
1 30921U 99025AZK 18176.54459476  .00000625  00000-0  33948-3 0  9990
2 30921  99.0111 204.0985 0020624 290.6588 223.2122 14.15967248581205
Source of the keplerian elements: AFSPC